ND5T Weather Reports


Display with metric or nautical units.
time (UTC)temp
F
wind
direction
speed
MPH
gust
MPH
rain 1hr
in
rain 24hr
in
rain mn
in
humidity
%
barometer
mb
20210926044558 63 0.0 0.0 0.00 0.00 0.00 1 1018.5
20210926043146 63 0.0 0.0 0.00 0.00 0.00 1 1018.5
20210926041620 64 0.0 0.0 0.00 0.00 0.00 1 1018.4
20210926040011 64 0.0 0.0 0.00 0.00 0.00 2 1018.4
20210926034647 65 0.0 0.0 0.00 0.00 0.00 6 1018.4
20210926033048 65 0.0 0.0 0.00 0.00 0.00 12 1018.5
20210926031640 65 0.0 0.0 0.00 0.00 0.00 15 1018.4
20210926024621 66 0.0 0.0 0.00 0.00 0.00 24 1018.4
20210926023203 67 0.0 0.0 0.00 0.00 0.00 24 1018.4
20210926021543 67 0.0 0.0 0.00 0.00 0.00 30 1018.3
20210926020346 68 0.0 0.0 0.00 0.00 0.00 37 1018.2
20210926014514 69 0.0 0.0 0.00 0.00 0.00 39 1018.1
20210926013121 69 0.0 0.0 0.00 0.00 0.00 49 1017.9
20210926011553 70 0.0 0.0 0.00 0.00 0.00 54 1017.8
20210926010056 71 0.0 0.0 0.00 0.00 0.00 58 1017.7
20210926003057 74 0.0 0.0 0.00 0.00 0.00 65 1017.7
20210926001505 75 0.0 0.0 0.00 0.00 0.00 67 1017.7
20210925234623 77 0.0 0.0 0.00 0.00 0.00 68 1017.6
20210925231629 79 0.0 0.0 0.00 0.00 0.00 64 1017.5
20210925224534 80 0.0 0.0 0.00 0.00 0.00 58 1017.5
20210925223048 81 0.0 0.0 0.00 0.00 0.00 58 1017.4
20210925221507 81 0.0 0.0 0.00 0.00 0.00 54 1017.5
20210925214605 83 0.0 0.0 0.00 0.00 0.00 49 1017.6
20210925211618 85 0.0 0.0 0.00 0.00 0.00 47 1017.7
20210925204633 85 0.0 0.0 0.00 0.00 0.00 49 1017.9
20210925203205 85 0.0 0.0 0.00 0.00 0.00 47 1018.1
20210925201516 85 0.0 0.0 0.00 0.00 0.00 48 1018.2
20210925200010 85 0.0 0.0 0.00 0.00 0.00 48 1018.5
20210925194636 85 0.0 0.0 0.00 0.00 0.00 48 1018.6
20210925193019 84 0.0 0.0 0.00 0.00 0.00 50 1018.9
20210925191632 84 0.0 0.0 0.00 0.00 0.00 48 1019.1
20210925184550 84 0.0 0.0 0.00 0.00 0.00 51 1019.6
20210925183224 83 0.0 0.0 0.00 0.00 0.00 49 1019.8
20210925181604 82 0.0 0.0 0.00 0.00 0.00 51 1020.0
20210925180144 82 0.0 0.0 0.00 0.00 0.00 54 1020.1
20210925174507 81 0.0 0.0 0.00 0.00 0.00 55 1020.3
20210925173104 81 0.0 0.0 0.00 0.00 0.00 54 1020.5
20210925164617 78 0.0 0.0 0.00 0.00 0.00 62 1020.9
20210925163144 77 0.0 0.0 0.00 0.00 0.00 64 1021.0
20210925161624 77 0.0 0.0 0.00 0.00 0.00 68 1021.2
20210925160046 75 0.0 0.0 0.00 0.00 0.00 68 1021.3
20210925154755 73 0.0 0.0 0.00 0.00 0.00 63 1021.3
20210925151545 69 0.0 0.0 0.00 0.00 0.00 39 1021.2
20210925150116 67 0.0 0.0 0.00 0.00 0.00 29 1021.2
20210925143022 65 0.0 0.0 0.00 0.00 0.00 1 1020.9
20210925141708 64 0.0 0.0 0.00 0.00 0.00 1 1020.8
20210925134554 59 0.0 0.0 0.00 0.00 0.00 1 1020.7
20210925133141 58 0.0 0.0 0.00 0.00 0.00 1 1020.6
20210925131513 57 0.0 0.0 0.00 0.00 0.00 1 1020.4
20210925130014 56 0.0 0.0 0.00 0.00 0.00 1 1020.3
20210925124741 55 0.0 0.0 0.00 0.00 0.00 1 1020.1
20210925123042 55 0.0 0.0 0.00 0.00 0.00 1 1019.9
20210925114544 55 0.0 0.0 0.00 0.00 0.00 1 1019.5
20210925113217 55 0.0 0.0 0.00 0.00 0.00 1 1019.3
20210925111620 56 0.0 0.0 0.00 0.00 0.00 1 1019.1
20210925110115 56 0.0 0.0 0.00 0.00 0.00 1 1019.0
20210925104511 56 0.0 0.0 0.00 0.00 0.00 1 1018.8
20210925103118 57 0.0 0.0 0.00 0.00 0.00 1 1018.7
20210925101520 57 0.0 0.0 0.00 0.00 0.00 1 1018.7
20210925100115 57 0.0 0.0 0.00 0.00 0.00 1 1018.8
20210925093042 57 0.0 0.0 0.00 0.00 0.00 1 1018.6
20210925091505 57 0.0 0.0 0.00 0.00 0.00 1 1018.7
20210925090136 57 0.0 0.0 0.00 0.00 0.00 1 1018.5
20210925084716 57 0.0 0.0 0.00 0.00 0.00 1 1018.6
20210925083028 57 0.0 0.0 0.00 0.00 0.00 1 1018.6
20210925081649 58 0.0 0.0 0.00 0.00 0.00 1 1018.6
20210925074621 58 0.0 0.0 0.00 0.00 0.00 1 1018.8
20210925073218 57 0.0 0.0 0.00 0.00 0.00 1 1018.8
20210925071658 57 0.0 0.0 0.00 0.00 0.00 1 1018.8
20210925064604 58 0.0 0.0 0.00 0.00 0.00 1 1018.6
20210925063132 58 0.0 0.0 0.00 0.00 0.00 1 1018.6
20210925061559 59 0.0 0.0 0.00 0.00 0.00 1 1018.5
20210925060055 59 0.0 0.0 0.00 0.00 0.00 1 1018.4
20210925053036 60 0.0 0.0 0.00 0.00 0.00 1 1018.3
20210925051503 60 0.0 0.0 0.00 0.00 0.00 1 1018.3